This is the latest recevied weather packets stored in our database for station/object W6MAF. If no packets are shown the sender has not sent any weather packets the latest 10 day(s).
| Time | Temp. | Humidity | Pressure | Rain* | Wind** | Luminosity | Snow |
|---|---|---|---|---|---|---|---|
| 1777526472 | 10.56° C | 53% | - | 0 mm | 4.92 m/s, 222° | - | - |
| 1777526172 | 10.56° C | 52% | - | 0 mm | 5.81 m/s, 232° | - | - |
| 1777525874 | 10.56° C | 51% | - | 0 mm | 4.02 m/s, 226° | - | - |
| 1777525576 | 11.11° C | 51% | - | 0 mm | 4.92 m/s, 232° | - | - |
| 1777525278 | 11.11° C | 50% | - | 0 mm | 5.36 m/s, 215° | - | - |
| 1777524683 | 11.11° C | 48% | - | 0 mm | 3.13 m/s, 219° | - | - |
| 1777524382 | 11.67° C | 47% | - | 0 mm | 4.02 m/s, 204° | - | - |
| 1777524084 | 11.67° C | 47% | - | 0 mm | 2.68 m/s, 208° | - | - |
| 1777523787 | 11.67° C | 46% | - | 0 mm | 4.47 m/s, 225° | - | - |
| 1777523490 | 12.22° C | 45% | - | 0 mm | 5.81 m/s, 188° | - | - |
| 1777523489 | 12.22° C | 45% | - | 0 mm | 5.81 m/s, 188° | - | - |
| 1777523191 | 12.22° C | 45% | - | 0 mm | 4.47 m/s, 239° | - | - |
| 1777522894 | 12.22° C | 43% | - | 0 mm | 4.47 m/s, 229° | - | - |
| 1777522593 | 12.78° C | 43% | - | 0 mm | 5.36 m/s, 224° | - | - |
| 1777522295 | 12.78° C | 42% | - | 0 mm | 4.47 m/s, 179° | - | - |
| 1777521701 | 12.78° C | 42% | - | 0 mm | 4.47 m/s, 214° | - | - |
| 1777521402 | 13.33° C | 41% | - | 0 mm | 3.58 m/s, 233° | - | - |
| 1777521104 | 13.33° C | 41% | - | 0 mm | 5.36 m/s, 232° | - | - |
| 1777520804 | 13.33° C | 41% | - | 0 mm | 4.47 m/s, 198° | - | - |
| 1777520506 | 13.33° C | 40% | - | 0 mm | 4.02 m/s, 218° | - | - |
| 1777520208 | 13.33° C | 40% | - | 0 mm | 3.58 m/s, 225° | - | - |
| 1777519910 | 13.89° C | 39% | - | 0 mm | 3.13 m/s, 208° | - | - |
| 1777519613 | 13.89° C | 38% | - | 0 mm | 4.92 m/s, 222° | - | - |
| 1777519315 | 13.89° C | 37% | - | 0 mm | 5.36 m/s, 200° | - | - |
| 1777519014 | 14.44° C | 34% | - | 0 mm | 6.26 m/s, 231° | - | - |
* Rain latest hour (hover to see other rain measurements)
** Current wind speed in m/s (hover to see current wind gust speed)